Find Starlink 32537

NORAD ID: 61923 Int'l Des: 2024-207 Owner: SPXS Country: US Constellation: starlink operational
LEOCIRCULAR

当前视图

正在加载3D地球...

About Starlink 32537

Starlink 32537 (NORAD 61923) is a starlink constellation satellite (v2 mini) launched Nov 11, 2024 by SPXS of US. It operates in LEO, CIRCULAR orbit with a mass of 730.00 kg.

即将过境

Passes for default location (London). Set your location on the main map for personalized predictions.

高度历史

Loading altitude history...

两行轨道根数

1 61923U 24207M 26263.06286463 .00011010 00000-0 40893-3 0 9990
2 61923 43.0013 267.9373 0001019 281.7396 78.3341 15.27587183104400
Epoch: Sep 20, 2026 • Age: 21 hours

当前状态

高度 484.5 km
远地点 / 近地点 N/A
速度 7.63 km/s
星下点 31.77°N, 64.74°E
发射日期 Nov 11, 2024
运行时间 1.8 years
类型 internet

技术详情

分类 Payload
质量 730.00 kg
干质量 700.00 kg
长度 0.30 m
跨度 29.00 m
形状 ? Box + pan
制造商 SPXS
平台类型 Starlink V2M
阶段状态 In Orbit
所有者/国家 SPXS/US

Most Searched